Location: Willingham
(52.3167°N, 0.0667°E)
Time: 22:40:20
(UTC+00:00)

USA 234 - Pass Details

Date: 19 May 2025
Orbit: 1096 x 1111 km, 123.0° (Epoch: 05 June)

Event Time Altitude Azimuth Distance (km) Brightness Sun altitude
Rises 20:48:38 0° 59° (ENE) 3,926 6.0 -7.0°
Reaches altitude 10° 20:51:14 10° 65° (ENE) 2,968 5.4 -7.3°
Maximum altitude 20:57:33 49° 139° (SE) 1,392 3.4 -8.0°
Drops below altitude 10° 21:03:53 10° 214° (SSW) 2,965 5.4 -8.6°
Sets 21:06:28 0° 219° (SW) 3,922 6.0 -8.8°
